This is the latest recevied weather packets stored in our database for station/object N2PPN. If no packets are shown the sender has not sent any weather packets the latest 10 day(s).
| Time | Temp. | Humidity | Pressure | Rain* | Wind** | Luminosity | Snow |
|---|---|---|---|---|---|---|---|
| 1777999405 | 18.89° C | 72% | 1014.1 hPa | 0 mm | - | 729 W/m² | - |
| 1777999103 | 20° C | 72% | 1014.1 hPa | 0 mm | - | 727 W/m² | - |
| 1777998802 | 19.44° C | 70% | 1014.2 hPa | 0 mm | - | 728 W/m² | - |
| 1777998500 | 20° C | 71% | 1014.5 hPa | 0 mm | - | 723 W/m² | - |
| 1777998196 | 19.44° C | 72% | 1014.2 hPa | 0 mm | - | 720 W/m² | - |
| 1777997893 | 18.89° C | 73% | 1014.8 hPa | 0 mm | - | 718 W/m² | - |
| 1777997590 | 18.89° C | 72% | 1014.5 hPa | 0 mm | - | 714 W/m² | - |
| 1777997288 | 19.44° C | 72% | 1014.7 hPa | 0 mm | - | 712 W/m² | - |
| 1777996985 | 18.89° C | 72% | 1014.6 hPa | 0 mm | - | 710 W/m² | - |
| 1777996682 | 18.89° C | 73% | 1014.4 hPa | 0 mm | - | 705 W/m² | - |
| 1777996377 | 18.89° C | 73% | 1014.9 hPa | 0 mm | - | 700 W/m² | - |
| 1777996074 | 19.44° C | 71% | 1014.6 hPa | 0 mm | - | 697 W/m² | - |
| 1777995771 | 20° C | 69% | 1014.7 hPa | 0 mm | - | 690 W/m² | - |
| 1777995467 | 18.89° C | 71% | 1014.8 hPa | 0 mm | - | 683 W/m² | - |
| 1777995164 | 18.89° C | 73% | 1014.7 hPa | 0 mm | - | 675 W/m² | - |
| 1777994861 | 18.33° C | 73% | 1014.8 hPa | 0 mm | - | 667 W/m² | - |
| 1777994557 | 18.33° C | 75% | 1014.6 hPa | 0 mm | - | 664 W/m² | - |
| 1777994252 | 17.78° C | 74% | 1014.9 hPa | 0 mm | - | 657 W/m² | - |
| 1777993950 | 18.33° C | 74% | 1014.9 hPa | 0 mm | - | 649 W/m² | - |
| 1777993647 | 18.33° C | 75% | 1015.1 hPa | 0 mm | - | 641 W/m² | - |
| 1777993345 | 17.78° C | 75% | 1015 hPa | 0 mm | - | 633 W/m² | - |
| 1777993044 | 17.78° C | 76% | 1015 hPa | 0 mm | - | 626 W/m² | - |
| 1777992743 | 17.78° C | 76% | 1015.1 hPa | 0 mm | - | 618 W/m² | - |
| 1777992440 | 17.78° C | 76% | 1015.1 hPa | 0 mm | - | 610 W/m² | - |
| 1777992138 | 17.78° C | 76% | 1015.2 hPa | 0 mm | - | 599 W/m² | - |
* Rain latest hour (hover to see other rain measurements)
** Current wind speed in m/s (hover to see current wind gust speed)